Regional Weather Roundup
Issued by NWS Raleigh/Durham, NC

Home | Current Version | Previous Version | Text Only | Print | Product List | Glossary On
Versions: 1 2 3 4 5 6 7 8 9 10 11 12 13 14 15 16 17 18 19 20 21 22 23 24 25 26 27 28 29 30 31 32 33 34 35 36 37 38 39 40 41 42 43 44 45 46 47 48 49 50
662
ASUS42 KRAH 302310
RWRRAH
NORTH CAROLINA WEATHER ROUNDUP
NATIONAL WEATHER SERVICE RALEIGH NC
700 PM EDT SAT APR 30 2016

NOTE: "FAIR" INDICATES FEW OR NO CLOUDS BELOW 12,000 FEET WITH NO
SIGNIFICANT WEATHER AND/OR OBSTRUCTIONS TO VISIBILITY.

NCZ001-053-055-056-065-067-010000-
WESTERN NORTH CAROLINA

CITY           SKY/WX    TMP DP  RH WIND       PRES   REMARKS
ASHEVILLE      CLOUDY    63  59  87 SE5       30.06F
JEFFERSON      LGT RAIN  54  53  98 CALM      30.11S VSB<1/4
MORGANTON      CLOUDY    62  60  93 N5        30.12S
HICKORY        CLOUDY    61  60  97 NE9       30.06S
RUTHERFORDTON  CLOUDY    65  65 100 CALM      30.07R VSB 1
MOUNT AIRY     CLOUDY    60  57  91 NE5       30.12S FOG
BOONE          FOG       55  55 100 E6        30.11S VSB 1/4
$$

NCZ021-022-025-041-071-084-088-010000-
CENTRAL NORTH CAROLINA

CITY           SKY/WX    TMP DP  RH WIND       PRES   REMARKS
CHARLOTTE      TSTM      68  64  87 N8        30.02F FOG
GREENSBORO     DRIZZLE   60  59  96 E10       30.10S FOG
WINSTON-SALEM  CLOUDY    60  57  89 E8        30.11S FOG
RALEIGH-DURHAM CLOUDY    62  57  83 E9        30.13S
FORT BRAGG     CLOUDY    67  60  77 E8        30.08S
FAYETTEVILLE   CLOUDY    69  60  73 E12       30.08S
BURLINGTON     CLOUDY    61  56  83 NE9       30.10F
LAURINBURG     PTSUNNY   71  61  70 E13       30.06S
$$

NCZ011-015-027-028-043-044-047-080-103-010000-
NORTHEASTERN NORTH CAROLINA

CITY           SKY/WX    TMP DP  RH WIND       PRES   REMARKS
ROCKY MT-WILSO CLOUDY    61  56  83 E6        30.14S
GREENVILLE     CLOUDY    63  55  77 E7        30.15F
WASHINGTON     CLOUDY    63  54  73 NE9       30.14S
ELIZABETH CITY PTCLDY    57  51  80 NE14      30.18S
MANTEO         NOT AVBL
CAPE HATTERAS  CLOUDY    56  53  90 NE9G16    30.15R
$$

NCZ078-087-090-091-093-098-101-010000-
SOUTHEASTERN NORTH CAROLINA

CITY           SKY/WX    TMP DP  RH WIND       PRES   REMARKS
LUMBERTON      PTSUNNY   72  63  73 E13       30.06S
GOLDSBORO      CLOUDY    64  63  94 E9        30.11S
KINSTON        PTSUNNY   64  57  77 E7        30.14S
KENANSVILLE    CLOUDY    65  57  77 CALM      30.13R
NEW BERN       CLOUDY    64  55  72 E7        30.14F
CHERRY POINT   CLOUDY    64  58  80 E7        30.15S
BEAUFORT       CLOUDY    63  56  78 NE9       30.14R
JACKSONVILLE   CLOUDY    67  56  67 E10       30.12S
WILMINGTON     CLOUDY    65  59  81 E9        30.12R
$$





USA.gov is the U.S. government's official web portal to all federal, state and local government web resources and services.